[[{"header":{"parameterUnit":"m.s-1","parameterCategory":1,"la1":30.2991,"la2":30.254,"lo1":-89.0895,"lo2":-89.0444,"dy":0.0017,"dx":0.0017,"nx":28,"ny":28,"refTime":"2024-12-26T09:00:00:Z","depth":0,"parameterNumber":2,"parameterNumberName":"U-component_of_WINDS"},"data":[0,0,0,0,0,0,0,0,0,0,0,0,0,0,0,0,0,0,0,0,0,0,0,0,0,0,0,0,0,0,0,0,0,0,0,0,0,0,0,0,0,0,0,0,0,0,0,0,0,0,0,0,0,0,0,0,0,0,-5.6416,-5.6416,0,-5.6476,-5.6477,-5.6478,-5.6336,-5.6331,-5.6327,-5.6322,-5.6388,-5.6394,-5.64,0,0,0,0,0,0,0,0,0,0,0,0,0,-5.6181,-5.6186,-5.6416,-5.6416,-5.6417,-5.6476,-5.6477,-5.6478,-5.6336,-5.6331,-5.6325,-5.632,-5.6386,-5.6393,-5.64,0,0,0,0,0,0,0,0,0,0,0,0,0,-5.6266,-5.6187,-5.6415,-5.6354,-5.6349,-5.6476,-5.6477,-5.6478,-5.6338,-5.6331,-5.6324,-5.6318,-5.6384,-5.6393,-5.6401,-5.6593,0,0,-5.6429,-5.6433,0,0,0,0,0,0,0,0,-5.6262,-5.6275,-5.6362,-5.6358,-5.6353,-5.6391,-5.6418,-5.6517,-5.6339,-5.6342,-5.6322,-5.6314,-5.6395,-5.6403,-5.6429,-5.6596,-5.6599,-5.643,-5.6435,-5.6439,-5.6441,0,0,0,0,0,0,0,-5.6256,-5.6272,-5.644,-5.6363,-5.6358,-5.6324,-5.6329,-5.6436,-5.6406,-5.6341,-5.6331,-5.634,-5.6391,-5.6421,-5.643,-5.66,-5.6429,-5.6437,-5.6443,-5.6446,-5.6927,-5.6934,0,0,0,0,0,0,-5.6257,-5.6268,-5.6438,-5.6441,-5.6289,-5.6334,-5.6339,-5.6386,-5.6404,-5.6401,-5.6346,-5.6333,-5.6409,-5.6419,-5.6431,-5.6657,-5.6439,-5.6447,-5.6452,-5.692,-5.6929,-5.6937,0,0,0,0,0,0,-5.6253,-5.6274,-5.6435,-5.6352,-5.637,-5.6345,-5.6399,-5.6391,-5.642,-5.6408,-5.6402,-5.6381,-5.6404,-5.6419,-5.6554,-5.6657,-5.6451,-5.6459,-5.6911,-5.6923,-5.6933,-5.711,0,0,0,0,0,0,-5.6247,-5.6273,-5.6345,-5.6355,-5.6375,-5.6556,-5.6405,-5.6397,-5.6435,-5.6419,-5.6439,-5.6436,-5.64,-5.6541,-5.6563,-5.6666,-5.6466,-5.6902,-5.6916,-5.693,-5.7095,-5.7125,-5.7152,0,0,0,0,0,-5.6239,-5.6393,-5.6349,-5.637,-5.6464,-5.6562,-5.6574,-5.6527,-5.6444,-5.6517,-5.6509,-5.6436,-5.6642,-5.6556,-5.6579,-5.6687,-5.6895,-5.6912,-5.6929,-5.7082,-5.7119,-5.7151,0,0,0,0,0,0,-5.6397,-5.6393,-5.6344,-5.6506,-5.6535,-5.6538,-5.6628,-5.6569,-5.6623,-5.6606,-5.6548,-5.6553,-5.67,-5.6706,-5.661,-5.6873,-5.6755,-5.6777,-5.6863,-5.6899,-5.6927,-5.6923,-5.6474,0,0,0,0,0,-5.645,-5.6529,-5.6522,-5.6665,-5.6682,-5.6653,-5.6694,-5.6656,-5.6685,-5.6697,-5.6699,-5.673,-5.6802,-5.6851,-5.6916,-5.7095,-5.7098,-5.718,-5.7209,-5.7233,-5.7253,-5.7348,-5.7385,-5.6992,-5.6992,-5.6991,0,0,-5.6562,-5.6569,-5.6623,-5.6697,-5.6715,-5.68,-5.6665,-5.676,-5.6822,-5.6711,-5.6838,-5.6842,-5.6873,-5.7031,-5.71,-5.7041,-5.7362,-5.7254,-5.7273,-5.728,-5.7369,-5.7406,-5.7439,-5.7003,-5.7001,-5.6999,0,0,-5.6808,-5.6822,-5.6942,-5.6963,-5.6993,-5.6972,-5.7002,-5.7013,-5.7011,-5.7137,-5.7056,-5.713,-5.7256,-5.7281,-5.7311,-5.7569,-5.7504,-5.7592,-5.7742,-5.7836,-5.7867,-5.7894,-5.7986,-5.802,-5.7611,-5.7612,-5.7612,0,-5.6943,-5.7066,-5.7012,-5.7113,-5.7148,-5.7051,-5.7174,-5.7197,-5.7248,-5.7275,-5.7207,-5.7362,-5.7377,-5.7539,-5.7602,-5.7629,-5.7662,-5.7589,-5.7866,-5.7893,-5.7918,-5.8005,-5.804,-5.7622,-5.7621,-5.762,-5.7619,0,-5.7231,-5.7318,-5.7412,-5.7462,-5.7508,-5.7619,-5.7584,-5.7637,-5.7595,-5.7582,-5.7713,-5.7727,-5.7794,-5.783,-5.779,-5.7988,-5.795,-5.7876,-5.7755,-5.7966,-5.8048,-5.8081,-5.7638,-5.7634,-5.7631,-5.7628,0,0,-5.7578,-5.7596,-5.7632,-5.7654,-5.7679,-5.7746,-5.7854,-5.7918,-5.7965,-5.8003,-5.8093,-5.8201,-5.8133,-5.8166,-5.8129,-5.8212,-5.8415,-5.8127,-5.8127,-5.818,-5.8634,-5.869,-5.873,-5.8372,-5.8378,-5.8383,-5.8632,0,-5.7821,-5.8004,-5.796,-5.8142,-5.8222,-5.8132,-5.8226,-5.8252,-5.8244,-5.8311,-5.8302,-5.838,-5.8283,-5.8303,-5.838,-5.8374,-5.8506,-5.8356,-5.8456,-5.846,-5.8451,-5.8772,-5.8831,-5.9065,-5.8663,-5.8668,-5.8672,0,-5.8129,-5.8178,-5.8369,-5.8382,-5.8414,-5.8499,-5.8555,-5.862,-5.8649,-5.8637,-5.8676,-5.8622,-5.873,-5.8609,-5.8757,-5.8656,-5.8695,-5.8698,-5.8706,-5.8714,-5.8579,-5.8789,-5.9138,-5.9173,-5.8722,-5.8718,-5.8714,0,-5.8364,-5.8478,-5.8606,-5.8627,-5.8646,-5.8708,-5.8719,-5.8741,-5.8783,-5.8832,-5.8859,-5.8921,-5.8955,-5.9005,-5.897,-5.8885,-5.9125,-5.9001,-5.9118,-5.912,-5.9173,-5.917,-5.9534,-5.9198,-5.9198,-5.9197,-5.9196,0,-5.864,-5.876,-5.8711,-5.8791,-5.8923,-5.8871,-5.9004,-5.9004,-5.9025,-5.9104,-5.903,-5.9105,-5.9055,-5.9127,-5.9101,-5.9228,-5.9244,-5.9238,-5.9229,-5.9244,-5.9245,-5.9269,-5.9252,-5.9206,-5.9204,-5.9202,-5.9201,0,-5.8924,-5.8896,-5.903,-5.9037,-5.9041,-5.9139,-5.9144,-5.9219,-5.9204,-5.9305,-5.9326,-5.9304,-5.9385,-5.9355,-5.9442,-5.9424,-5.9587,-5.9557,-5.9577,-5.9569,-5.9689,-5.9678,-6.008,-6.0131,-5.9763,-5.9767,-5.977,0,-5.9102,-5.9192,-5.9208,-5.9255,-5.9271,-5.9347,-5.9389,-5.9343,-5.939,-5.943,-5.95,-5.9574,-5.9631,-5.9765,-5.9758,-5.9824,-5.9795,-5.9932,-5.9805,-5.9817,-5.9798,-5.9793,-5.9802,-5.9957,-5.9962,-5.9965,-5.9968,0,-5.9421,-5.9403,-5.9466,-5.9525,-5.9577,-5.9622,-5.966,-5.9703,-5.9658,-5.9715,-5.9797,-5.9841,-5.9929,-6.0004,-6.0063,-6.0075,-6.0016,-6.0008,-6.0039,-6.0055,-6.0062,-6.006,-5.9646,-5.9999,-5.9996,-5.9994,-5.9992,-5.9991,-5.9657,-5.9733,-5.9757,-5.983,-5.9853,-5.9891,-5.9961,-5.9956,-6.0022,-6.0089,-6.0058,-6.0153,-6.018,-6.0254,-6.0275,-6.0349,-6.0296,-6.034,-6.0352,-6.0363,-6.0379,-6.0051,-6.0359,-6.0358,-6.0358,-6.0357,-6.0356,0,-5.9972,-5.9983,-6.0051,-6.0106,-6.0164,-6.0101,-6.0141,-6.0194,-6.0277,-6.0308,-6.0365,-6.0459,-6.0532,-6.0531,-6.0598,-6.0658,-6.0632,-6.0677,-6.0672,-6.0676,-6.0422,-6.0389,-6.0697,-6.0697,-6.0697,-6.0697,-6.0697,-6.0697,-6.0143,-6.0268,-6.0254,-6.0391,-6.04,-6.0492,-6.0519,-6.0554,-6.0578,-6.0686,-6.0746,-6.0744,-6.0763,-6.0831,-6.0895,-6.0893,-6.0922,-6.0978,-6.0966,-6.0728,-6.0694,-6.0662,-6.063,-6.0984,-6.0985,-6.1213,-6.1215,-6.1217]},{"header":{"parameterUnit":"m.s-1","parameterCategory":1,"la1":30.2991,"la2":30.254,"lo1":-89.0895,"lo2":-89.0444,"dy":0.0017,"dx":0.0017,"nx":28,"ny":28,"refTime":"2024-12-26T09:00:00:Z","depth":0,"parameterNumber":3,"parameterNumberName":"V-component_of_WINDS"},"data":[0,0,0,0,0,0,0,0,0,0,0,0,0,0,0,0,0,0,0,0,0,0,0,0,0,0,0,0,0,0,0,0,0,0,0,0,0,0,0,0,0,0,0,0,0,0,0,0,0,0,0,0,0,0,0,0,0,0,-2.0132,-2.0132,0,-2.0134,-2.0134,-2.0134,-2.0109,-2.0108,-2.0107,-2.0107,-2.0108,-2.0109,-2.011,0,0,0,0,0,0,0,0,0,0,0,0,0,-2.0106,-2.0107,-2.0132,-2.0132,-2.0132,-2.0134,-2.0134,-2.0134,-2.0109,-2.0108,-2.0107,-2.0107,-2.0108,-2.0109,-2.011,0,0,0,0,0,0,0,0,0,0,0,0,0,-2.0114,-2.0107,-2.0132,-2.012,-2.0119,-2.0134,-2.0134,-2.0134,-2.0109,-2.0108,-2.0107,-2.0106,-2.0108,-2.0109,-2.011,-2.0136,0,0,-2.0113,-2.0113,0,0,0,0,0,0,0,0,-2.0113,-2.0115,-2.0122,-2.0121,-2.012,-2.012,-2.0125,-2.0135,-2.0109,-2.0113,-2.0107,-2.0106,-2.0113,-2.0114,-2.0116,-2.0137,-2.0137,-2.0113,-2.0114,-2.0114,-2.0114,0,0,0,0,0,0,0,-2.0113,-2.0114,-2.0133,-2.0122,-2.0121,-2.0114,-2.0114,-2.0127,-2.0119,-2.0113,-2.0111,-2.0111,-2.0112,-2.0115,-2.0116,-2.0137,-2.0113,-2.0114,-2.0114,-2.0115,-2.0177,-2.0178,0,0,0,0,0,0,-2.0114,-2.0114,-2.0133,-2.0133,-2.0114,-2.0115,-2.0115,-2.0121,-2.0118,-2.0117,-2.0112,-2.011,-2.0114,-2.0115,-2.0116,-2.0146,-2.0114,-2.0115,-2.0115,-2.0176,-2.0178,-2.0179,0,0,0,0,0,0,-2.0113,-2.0116,-2.0133,-2.0123,-2.0125,-2.0117,-2.0124,-2.0122,-2.0125,-2.0118,-2.0116,-2.0117,-2.0113,-2.0114,-2.0131,-2.0146,-2.0115,-2.0116,-2.0175,-2.0177,-2.0178,-2.0207,0,0,0,0,0,0,-2.0113,-2.0116,-2.0126,-2.0123,-2.0125,-2.0149,-2.0125,-2.0122,-2.0126,-2.0124,-2.0122,-2.0121,-2.0112,-2.013,-2.0132,-2.0147,-2.0117,-2.0174,-2.0176,-2.0178,-2.0205,-2.021,-2.0214,0,0,0,0,0,-2.0112,-2.0135,-2.0127,-2.013,-2.0138,-2.015,-2.0151,-2.0141,-2.0128,-2.0138,-2.0133,-2.0121,-2.0144,-2.0132,-2.0134,-2.0149,-2.0173,-2.0175,-2.0178,-2.0203,-2.0209,-2.0213,0,0,0,0,0,0,-2.014,-2.0134,-2.0126,-2.0148,-2.015,-2.0145,-2.0158,-2.0147,-2.0152,-2.015,-2.0137,-2.0137,-2.0155,-2.0154,-2.0141,-2.0174,-2.0156,-2.0159,-2.0174,-2.018,-2.0184,-2.0184,-2.0118,0,0,0,0,0,-2.0149,-2.0159,-2.0153,-2.0174,-2.0175,-2.0166,-2.0171,-2.0163,-2.0164,-2.0164,-2.0161,-2.0162,-2.0169,-2.0174,-2.0181,-2.0204,-2.0203,-2.0216,-2.022,-2.0224,-2.0226,-2.0237,-2.0243,-2.0187,-2.0187,-2.0186,0,0,-2.0167,-2.0165,-2.0173,-2.0179,-2.0179,-2.0189,-2.0167,-2.0179,-2.0186,-2.0166,-2.0181,-2.0179,-2.0179,-2.0199,-2.0208,-2.0198,-2.0241,-2.0227,-2.023,-2.023,-2.024,-2.0246,-2.0251,-2.0188,-2.0188,-2.0188,0,0,-2.0206,-2.0206,-2.0222,-2.0222,-2.0222,-2.0216,-2.022,-2.0217,-2.0215,-2.023,-2.0215,-2.0223,-2.0236,-2.0236,-2.0238,-2.0275,-2.0263,-2.0278,-2.03,-2.0311,-2.0316,-2.0319,-2.0332,-2.0336,-2.028,-2.028,-2.028,0,-2.0229,-2.0244,-2.0232,-2.0244,-2.0247,-2.0229,-2.0245,-2.0246,-2.0248,-2.025,-2.024,-2.0255,-2.0254,-2.0273,-2.0282,-2.0284,-2.0288,-2.0278,-2.0316,-2.032,-2.0323,-2.0335,-2.0339,-2.0282,-2.0282,-2.0282,-2.0281,0,-2.0271,-2.0281,-2.0294,-2.0296,-2.0301,-2.0315,-2.0305,-2.0311,-2.0302,-2.0297,-2.0312,-2.031,-2.0315,-2.0319,-2.0311,-2.0336,-2.033,-2.0318,-2.03,-2.033,-2.0341,-2.0345,-2.0284,-2.0284,-2.0283,-2.0283,0,0,-2.0329,-2.0323,-2.0328,-2.0328,-2.0326,-2.0333,-2.0346,-2.0351,-2.0355,-2.0357,-2.0367,-2.0378,-2.0366,-2.0368,-2.036,-2.0369,-2.0397,-2.0356,-2.0355,-2.0363,-2.0424,-2.0433,-2.0439,-2.0389,-2.039,-2.0391,-2.0424,0,-2.0365,-2.0387,-2.0376,-2.0399,-2.0407,-2.0389,-2.04,-2.04,-2.0395,-2.0401,-2.0396,-2.0403,-2.0388,-2.0389,-2.0397,-2.0392,-2.0409,-2.039,-2.0398,-2.0398,-2.0398,-2.0444,-2.0454,-2.0486,-2.0428,-2.0429,-2.0429,0,-2.0412,-2.0414,-2.0438,-2.0433,-2.0436,-2.0446,-2.0448,-2.0455,-2.0453,-2.0449,-2.0451,-2.044,-2.0451,-2.0433,-2.0448,-2.0434,-2.0437,-2.0435,-2.0436,-2.0436,-2.0416,-2.0445,-2.0496,-2.05,-2.0436,-2.0436,-2.0435,0,-2.045,-2.046,-2.0475,-2.0475,-2.047,-2.0477,-2.0475,-2.0473,-2.0476,-2.0478,-2.048,-2.0483,-2.0485,-2.0488,-2.0478,-2.0466,-2.0494,-2.0475,-2.049,-2.049,-2.0497,-2.0497,-2.0548,-2.0499,-2.0499,-2.0499,-2.0499,0,-2.0492,-2.0507,-2.0492,-2.0501,-2.0516,-2.0503,-2.0519,-2.0515,-2.0513,-2.0521,-2.0505,-2.0513,-2.0499,-2.0505,-2.0497,-2.051,-2.0511,-2.0508,-2.0505,-2.0509,-2.0509,-2.051,-2.0508,-2.0501,-2.05,-2.05,-2.05,0,-2.0538,-2.0528,-2.0543,-2.0536,-2.0535,-2.0547,-2.0541,-2.0548,-2.0542,-2.0552,-2.0553,-2.0543,-2.0549,-2.0539,-2.0544,-2.0539,-2.0557,-2.0551,-2.0557,-2.0555,-2.0571,-2.0569,-2.0624,-2.0631,-2.0579,-2.0579,-2.058,0,-2.0565,-2.0576,-2.057,-2.0574,-2.0573,-2.0579,-2.0582,-2.0569,-2.0572,-2.057,-2.0578,-2.0583,-2.0586,-2.0596,-2.0589,-2.0592,-2.0587,-2.0605,-2.0587,-2.059,-2.0586,-2.0585,-2.0586,-2.0609,-2.061,-2.0611,-2.0611,0,-2.0615,-2.0609,-2.0613,-2.0616,-2.0619,-2.062,-2.062,-2.0624,-2.061,-2.0615,-2.062,-2.0623,-2.0627,-2.0631,-2.0633,-2.063,-2.0618,-2.0617,-2.062,-2.0624,-2.0627,-2.0625,-2.0567,-2.0616,-2.0615,-2.0615,-2.0615,-2.0614,-2.0652,-2.066,-2.0656,-2.0661,-2.066,-2.066,-2.0666,-2.066,-2.0665,-2.0667,-2.0659,-2.0666,-2.0663,-2.0664,-2.0662,-2.0668,-2.0659,-2.0665,-2.0666,-2.0667,-2.0669,-2.0626,-2.0668,-2.0668,-2.0668,-2.0667,-2.0667,0,-2.07,-2.0696,-2.0701,-2.0701,-2.0704,-2.0692,-2.0691,-2.0695,-2.0701,-2.0699,-2.0702,-2.0708,-2.0712,-2.0704,-2.0707,-2.0712,-2.0707,-2.0713,-2.0713,-2.0712,-2.0677,-2.0673,-2.0718,-2.0718,-2.0718,-2.0718,-2.0718,-2.0718,-2.0725,-2.0738,-2.0731,-2.0743,-2.0739,-2.0745,-2.0746,-2.0745,-2.0744,-2.0751,-2.0754,-2.0749,-2.0744,-2.0746,-2.0749,-2.0747,-2.0748,-2.0757,-2.0752,-2.072,-2.0715,-2.071,-2.0707,-2.0757,-2.0757,-2.0787,-2.0787,-2.0787]}]]